,,Stat6,,Stat2,,Stat8,,Stat9,,Stat10,,Wind1,,Wind1,
time,status,PA1M_AVG,status,PR1M_SUM,status,RH1M_AVG,status,SR1M_AVG,status,TA1M_AVG,status,W1dAve1m,status,W1sAve1m,
2008-07-06, 00:00:00,VALID,917.995,VALID,0,VALID,100,VALID,-0.101885,VALID,20.0555,VALID,134,VALID,0.334223,
2008-07-06, 00:01:00,VALID,917.964,VALID,0,VALID,100,VALID,-0.101885,VALID,20.0623,VALID,154,VALID,0.217226,
2008-07-06, 00:02:00,VALID,917.926,VALID,0,VALID,100,VALID,-0.101885,VALID,20.062,VALID,147,VALID,0.354852,
2008-07-06, 00:03:00,VALID,917.915,VALID,0,VALID,100,VALID,-0.101885,VALID,20.065,VALID,138,VALID,0.121181,
2008-07-06, 00:04:00,VALID,917.869,VALID,0,VALID,100,VALID,-0.101885,VALID,20.078,VALID,138,VALID,0.22603,
2008-07-06, 00:05:00,VALID,917.839,VALID,0,VALID,100,VALID,-0.152827,VALID,20.0685,VALID,138,VALID,0,
2008-07-06, 00:06:00,VALID,917.804,VALID,0,VALID,100,VALID,-0.0679233,VALID,20.085,VALID,145,VALID,1.58866,
2008-07-06, 00:07:00,VALID,917.783,VALID,0,VALID,100,VALID,-0.101885,VALID,20.0915,VALID,118,VALID,0.906631,
2008-07-06, 00:08:00,VALID,917.764,VALID,0,VALID,100,VALID,-0.135847,VALID,20.1242,VALID,112,VALID,0.454397,
2008-07-06, 00:09:00,VALID,917.757,VALID,0,VALID,100,VALID,-0.101885,VALID,20.1304,VALID,101,VALID,0.0299782,
2008-07-06, 00:10:00,VALID,917.739,VALID,0,VALID,100,VALID,-0.101885,VALID,20.1274,VALID,118,VALID,0.813616,
2008-07-06, 00:11:00,VALID,917.719,VALID,0,VALID,100,VALID,-0.101885,VALID,20.1142,VALID,120,VALID,0.733774,
2008-07-06, 00:12:00,VALID,917.72,VALID,0,VALID,100,VALID,-0.118866,VALID,20.1209,VALID,148,VALID,1.16016,
2008-07-06, 00:13:00,VALID,917.705,VALID,0,VALID,100,VALID,-0.101885,VALID,20.1139,VALID,142,VALID,1.01962,
2008-07-06, 00:14:00,VALID,917.69,VALID,0,VALID,100,VALID,-0.101885,VALID,20.1207,VALID,136,VALID,1.00724,
2008-07-06, 00:15:00,VALID,917.672,VALID,0,VALID,100,VALID,-0.101885,VALID,20.1207,VALID,130,VALID,1.3176,
2008-07-06, 00:16:00,VALID,917.646,VALID,0,VALID,100,VALID,-0.101885,VALID,20.1207,VALID,113,VALID,0.995206,
2008-07-06, 00:17:00,VALID,917.629,VALID,0,VALID,100,VALID,-0.101885,VALID,20.1074,VALID,104,VALID,1.27624,
2008-07-06, 00:18:00,VALID,917.593,VALID,0,VALID,100,VALID,-0.118866,VALID,20.1369,VALID,95,VALID,0.654688,
2008-07-06, 00:19:00,VALID,917.562,VALID,0,VALID,100,VALID,-0.101885,VALID,20.1466,VALID,105,VALID,0.00236192,
2008-07-06, 00:20:00,VALID,917.538,VALID,0,VALID,100,VALID,-0.0849042,VALID,20.1239,VALID,98,VALID,0,
2008-07-06, 00:21:00,VALID,917.533,VALID,0,VALID,100,VALID,-0.101885,VALID,20.1042,VALID,107,VALID,0.723366,
2008-07-06, 00:22:00,VALID,917.511,VALID,0,VALID,100,VALID,-0.101885,VALID,20.0852,VALID,116,VALID,1.30004,
2008-07-06, 00:23:00,VALID,917.499,VALID,0,VALID,100,VALID,-0.0849042,VALID,20.0877,VALID,122,VALID,1.04901,
2008-07-06, 00:24:00,VALID,917.5,VALID,0,VALID,100,VALID,0,VALID,20.0805,VALID,123,VALID,1.32031,
2008-07-06, 00:25:00,VALID,917.475,VALID,0,VALID,100,VALID,0,VALID,20.0797,VALID,125,VALID,1.47561,
2008-07-06, 00:26:00,VALID,917.46,VALID,0,VALID,100,VALID,0,VALID,20.1097,VALID,135,VALID,1.22745,
2008-07-06, 00:27:00,VALID,917.441,VALID,0,VALID,100,VALID,0,VALID,20.1221,VALID,138,VALID,0.0443314,
2008-07-06, 00:28:00,VALID,917.436,VALID,0,VALID,100,VALID,-0.0169808,VALID,20.1356,VALID,133,VALID,0.0531994,
2008-07-06, 00:29:00,VALID,917.42,VALID,0,VALID,100,VALID,0,VALID,20.1354,VALID,144,VALID,0.363554,
2008-07-06, 00:30:00,VALID,917.411,VALID,0,VALID,100,VALID,-0.0169808,VALID,20.1451,VALID,142,VALID,0.00835756,
2008-07-06, 00:31:00,VALID,917.412,VALID,0,VALID,100,VALID,0.0169808,VALID,20.1486,VALID,159,VALID,0,
2008-07-06, 00:32:00,VALID,917.415,VALID,0,VALID,100,VALID,-0.0169808,VALID,20.1648,VALID,159,VALID,0,
2008-07-06, 00:33:00,VALID,917.402,VALID,0,VALID,100,VALID,0,VALID,20.1646,VALID,159,VALID,0,
2008-07-06, 00:34:00,VALID,917.411,VALID,0,VALID,100,VALID,0,VALID,20.1673,VALID,159,VALID,0,
2008-07-06, 00:35:00,VALID,917.422,VALID,0,VALID,100,VALID,-0.0169808,VALID,20.1776,VALID,159,VALID,0,
2008-07-06, 00:36:00,VALID,917.416,VALID,0,VALID,100,VALID,0,VALID,20.1841,VALID,159,VALID,0,
2008-07-06, 00:37:00,VALID,917.405,VALID,0,VALID,100,VALID,0.0509425,VALID,20.1773,VALID,154,VALID,0,
2008-07-06, 00:38:00,VALID,917.408,VALID,0,VALID,100,VALID,0,VALID,20.1736,VALID,156,VALID,0.238917,
2008-07-06, 00:39:00,VALID,917.405,VALID,0,VALID,100,VALID,-0.0169808,VALID,20.1711,VALID,153,VALID,0.69082,
2008-07-06, 00:40:00,VALID,917.413,VALID,0,VALID,100,VALID,0,VALID,20.1546,VALID,154,VALID,1.0359,
2008-07-06, 00:41:00,VALID,917.397,VALID,0,VALID,100,VALID,-0.0169808,VALID,20.1349,VALID,153,VALID,0.584794,
2008-07-06, 00:42:00,VALID,917.397,VALID,0,VALID,100,VALID,0,VALID,20.1578,VALID,148,VALID,1.07431,
2008-07-06, 00:43:00,VALID,917.384,VALID,0,VALID,100,VALID,0,VALID,20.1578,VALID,151,VALID,0.0978338,
2008-07-06, 00:44:00,VALID,917.384,VALID,0,VALID,100,VALID,0,VALID,20.1713,VALID,148,VALID,0,
2008-07-06, 00:45:00,VALID,917.358,VALID,0,VALID,100,VALID,0,VALID,20.1708,VALID,170,VALID,0,
2008-07-06, 00:46:00,VALID,917.341,VALID,0,VALID,100,VALID,0.0169808,VALID,20.1743,VALID,172,VALID,0,
2008-07-06, 00:47:00,VALID,917.341,VALID,0,VALID,100,VALID,0.0169808,VALID,20.1713,VALID,147,VALID,0,
2008-07-06, 00:48:00,VALID,917.354,VALID,0,VALID,100,VALID,0.0169808,VALID,20.1546,VALID,154,VALID,0.0400152,
2008-07-06, 00:49:00,VALID,917.338,VALID,0,VALID,100,VALID,0.0679233,VALID,20.1411,VALID,163,VALID,0.0552885,
2008-07-06, 00:50:00,VALID,917.323,VALID,0,VALID,100,VALID,0,VALID,20.1514,VALID,96,VALID,0.0651634,
2008-07-06, 00:51:00,VALID,917.313,VALID,0,VALID,100,VALID,0.0339617,VALID,20.1411,VALID,94,VALID,0,
2008-07-06, 00:52:00,VALID,917.304,VALID,0,VALID,100,VALID,0.0509425,VALID,20.1514,VALID,94,VALID,0,
2008-07-06, 00:53:00,VALID,917.305,VALID,0,VALID,100,VALID,0,VALID,20.1481,VALID,93,VALID,0,
2008-07-06, 00:54:00,VALID,917.303,VALID,0,VALID,100,VALID,-0.0169808,VALID,20.1613,VALID,84,VALID,0,
2008-07-06, 00:55:00,VALID,917.292,VALID,0,VALID,100,VALID,-0.0339617,VALID,20.1646,VALID,74,VALID,0,
2008-07-06, 00:56:00,VALID,917.289,VALID,0,VALID,100,VALID,0.0169808,VALID,20.1583,VALID,63,VALID,0,
2008-07-06, 00:57:00,VALID,917.283,VALID,0,VALID,100,VALID,0,VALID,20.1384,VALID,66,VALID,0,
2008-07-06, 00:58:00,VALID,917.258,VALID,0,VALID,100,VALID,0.0169808,VALID,20.1321,VALID,79,VALID,0,
2008-07-06, 00:59:00,VALID,917.24,VALID,0,VALID,100,VALID,0,VALID,20.1124,VALID,88,VALID,0,
2008-07-06, 01:00:00,VALID,917.218,VALID,0,VALID,100,VALID,0,VALID,20.1089,VALID,92,VALID,0,
2008-07-06, 01:01:00,VALID,917.223,VALID,0,VALID,100,VALID,0.0169808,VALID,20.0984,VALID,92,VALID,0,
2008-07-06, 01:02:00,VALID,917.203,VALID,0,VALID,100,VALID,0,VALID,20.1059,VALID,105,VALID,0.390811,
2008-07-06, 01:03:00,VALID,917.191,VALID,0,VALID,100,VALID,0,VALID,20.0992,VALID,111,VALID,0,
2008-07-06, 01:04:00,VALID,917.18,VALID,0,VALID,100,VALID,0.0169808,VALID,20.1027,VALID,105,VALID,0,
2008-07-06, 01:05:00,VALID,917.152,VALID,0,VALID,100,VALID,-0.0169808,VALID,20.1124,VALID,101,VALID,0,
2008-07-06, 01:06:00,VALID,917.127,VALID,0,VALID,100,VALID,0,VALID,20.0989,VALID,94,VALID,0,
2008-07-06, 01:07:00,VALID,917.097,VALID,0,VALID,100,VALID,0,VALID,20.1221,VALID,94,VALID,0,
2008-07-06, 01:08:00,VALID,917.085,VALID,0,VALID,100,VALID,-0.0339617,VALID,20.1227,VALID,99,VALID,0.111555,
2008-07-06, 01:09:00,VALID,917.065,VALID,0,VALID,100,VALID,-0.101885,VALID,20.0947,VALID,106,VALID,1.04359,
2008-07-06, 01:10:00,VALID,917.044,VALID,0,VALID,100,VALID,-0.101885,VALID,20.078,VALID,116,VALID,0.995458,
2008-07-06, 01:11:00,VALID,917.026,VALID,0,VALID,100,VALID,-0.101885,VALID,20.0815,VALID,137,VALID,0.344618,
2008-07-06, 01:12:00,VALID,917.001,VALID,0,VALID,100,VALID,-0.101885,VALID,20.0875,VALID,144,VALID,0.939062,
2008-07-06, 01:13:00,VALID,917.003,VALID,0,VALID,100,VALID,-0.0849042,VALID,20.0977,VALID,147,VALID,0.719618,
2008-07-06, 01:14:00,VALID,916.964,VALID,0,VALID,100,VALID,-0.101885,VALID,20.0977,VALID,149,VALID,1.06722,
2008-07-06, 01:15:00,VALID,916.949,VALID,0,VALID,100,VALID,-0.101885,VALID,20.091,VALID,143,VALID,0.242932,
2008-07-06, 01:16:00,VALID,916.923,VALID,0,VALID,100,VALID,-0.0849042,VALID,20.0777,VALID,153,VALID,0.00590701,
2008-07-06, 01:17:00,VALID,916.91,VALID,0,VALID,100,VALID,-0.0849042,VALID,20.0812,VALID,142,VALID,0.0793968,
2008-07-06, 01:18:00,VALID,916.877,VALID,0,VALID,100,VALID,-0.0679233,VALID,20.0747,VALID,141,VALID,0.00195313,
2008-07-06, 01:19:00,VALID,916.876,VALID,0,VALID,100,VALID,-0.0849042,VALID,20.0785,VALID,142,VALID,0,
2008-07-06, 01:20:00,VALID,916.859,VALID,0,VALID,100,VALID,-0.0849042,VALID,20.0817,VALID,142,VALID,0,
2008-07-06, 01:21:00,VALID,916.836,VALID,0,VALID,100,VALID,-0.101885,VALID,20.0685,VALID,149,VALID,0,
2008-07-06, 01:22:00,VALID,916.833,VALID,0,VALID,100,VALID,-0.0509425,VALID,20.0682,VALID,159,VALID,0,
2008-07-06, 01:23:00,VALID,916.842,VALID,0,VALID,100,VALID,-0.0849042,VALID,20.0542,VALID,158,VALID,0,
2008-07-06, 01:24:00,VALID,916.834,VALID,0,VALID,100,VALID,0,VALID,20.06,VALID,161,VALID,0,
2008-07-06, 01:25:00,VALID,916.813,VALID,0,VALID,100,VALID,0.0169808,VALID,20.073,VALID,161,VALID,0,
2008-07-06, 01:26:00,VALID,916.804,VALID,0,VALID,100,VALID,0,VALID,20.0732,VALID,163,VALID,0,
2008-07-06, 01:27:00,VALID,916.812,VALID,0,VALID,100,VALID,0.0169808,VALID,20.0695,VALID,169,VALID,0,
2008-07-06, 01:28:00,VALID,916.801,VALID,0,VALID,100,VALID,0.0679233,VALID,20.0532,VALID,169,VALID,0,
2008-07-06, 01:29:00,VALID,916.803,VALID,0,VALID,100,VALID,0.0169808,VALID,20.0497,VALID,169,VALID,0,
2008-07-06, 01:30:00,VALID,916.803,VALID,0,VALID,100,VALID,0.0169808,VALID,20.06,VALID,169,VALID,0,
2008-07-06, 01:31:00,VALID,916.801,VALID,0,VALID,100,VALID,0.0339617,VALID,20.063,VALID,169,VALID,0,
2008-07-06, 01:32:00,VALID,916.794,VALID,0,VALID,100,VALID,0.0339617,VALID,20.076,VALID,169,VALID,0,
2008-07-06, 01:33:00,VALID,916.793,VALID,0,VALID,100,VALID,0.0339617,VALID,20.0957,VALID,169,VALID,0,
2008-07-06, 01:34:00,VALID,916.791,VALID,0,VALID,100,VALID,0,VALID,20.1087,VALID,169,VALID,0,
2008-07-06, 01:35:00,VALID,916.767,VALID,0,VALID,100,VALID,0.0169808,VALID,20.1219,VALID,169,VALID,0,
2008-07-06, 01:36:00,VALID,916.774,VALID,0,VALID,100,VALID,0.0339617,VALID,20.0894,VALID,180,VALID,0,
2008-07-06, 01:37:00,VALID,916.793,VALID,0,VALID,100,VALID,0,VALID,20.08,VALID,183,VALID,0,
2008-07-06, 01:38:00,VALID,916.804,VALID,0,VALID,100,VALID,0,VALID,20.0635,VALID,183,VALID,0,
2008-07-06, 01:39:00,VALID,916.783,VALID,0,VALID,100,VALID,0.0169808,VALID,20.067,VALID,183,VALID,0,
2008-07-06, 01:40:00,VALID,916.769,VALID,0,VALID,100,VALID,-0.0169808,VALID,20.0607,VALID,183,VALID,0,
2008-07-06, 01:41:00,VALID,916.784,VALID,0,VALID,100,VALID,0,VALID,20.0313,VALID,164,VALID,0.357088,
2008-07-06, 01:42:00,VALID,916.797,VALID,0,VALID,100,VALID,-0.0169808,VALID,20.0248,VALID,146,VALID,0.318359,
2008-07-06, 01:43:00,VALID,916.798,VALID,0,VALID,100,VALID,0,VALID,20.0373,VALID,149,VALID,0,
2008-07-06, 01:44:00,VALID,916.794,VALID,0,VALID,100,VALID,0.0169808,VALID,20.024,VALID,149,VALID,0,
2008-07-06, 01:45:00,VALID,916.797,VALID,0,VALID,100,VALID,0,VALID,20.021,VALID,148,VALID,0,
2008-07-06, 01:46:00,VALID,916.791,VALID,0,VALID,100,VALID,0,VALID,20.0375,VALID,148,VALID,0,
2008-07-06, 01:47:00,VALID,916.792,VALID,0,VALID,100,VALID,0,VALID,20.0338,VALID,148,VALID,0,
2008-07-06, 01:48:00,VALID,916.808,VALID,0,VALID,100,VALID,-0.0169808,VALID,20.067,VALID,148,VALID,0,
2008-07-06, 01:49:00,VALID,916.822,VALID,0,VALID,100,VALID,0.0169808,VALID,20.054,VALID,148,VALID,0,
2008-07-06, 01:50:00,VALID,916.849,VALID,0,VALID,100,VALID,-0.0169808,VALID,20.0772,VALID,148,VALID,0,
2008-07-06, 01:51:00,VALID,916.847,VALID,0,VALID,100,VALID,0,VALID,20.07,VALID,148,VALID,0,
2008-07-06, 01:52:00,VALID,916.842,VALID,0,VALID,100,VALID,0.0169808,VALID,20.0767,VALID,148,VALID,0,
2008-07-06, 01:53:00,VALID,916.835,VALID,0,VALID,100,VALID,0.0169808,VALID,20.0632,VALID,148,VALID,0,
2008-07-06, 01:54:00,VALID,916.822,VALID,0,VALID,100,VALID,-0.0509425,VALID,20.0542,VALID,149,VALID,0,
2008-07-06, 01:55:00,VALID,916.824,VALID,0,VALID,100,VALID,-0.0509425,VALID,20.0345,VALID,155,VALID,0,
2008-07-06, 01:56:00,VALID,916.831,VALID,0,VALID,100,VALID,-0.101885,VALID,20.0248,VALID,160,VALID,0,
2008-07-06, 01:57:00,VALID,916.832,VALID,0,VALID,100,VALID,-0.0679233,VALID,20.0215,VALID,160,VALID,0,
2008-07-06, 01:58:00,VALID,916.854,VALID,0,VALID,100,VALID,-0.0679233,VALID,20.025,VALID,160,VALID,0,
2008-07-06, 01:59:00,VALID,916.881,VALID,0,VALID,100,VALID,-0.0339617,VALID,20.0053,VALID,160,VALID,0,
2008-07-06, 02:00:00,VALID,916.877,VALID,0,VALID,100,VALID,-0.0169808,VALID,20.0056,VALID,173,VALID,0,
2008-07-06, 02:01:00,VALID,916.893,VALID,0,VALID,100,VALID,-0.0509425,VALID,19.9956,VALID,183,VALID,0,
2008-07-06, 02:02:00,VALID,916.894,VALID,0,VALID,100,VALID,-0.0169808,VALID,19.9691,VALID,165,VALID,0.130409,
2008-07-06, 02:03:00,VALID,916.905,VALID,0,VALID,100,VALID,0,VALID,19.9756,VALID,171,VALID,0.0282315,
2008-07-06, 02:04:00,VALID,916.883,VALID,0,VALID,100,VALID,0,VALID,19.9756,VALID,174,VALID,0.0025436,
2008-07-06, 02:05:00,VALID,916.869,VALID,0,VALID,100,VALID,0,VALID,19.9694,VALID,178,VALID,0.0835756,
2008-07-06, 02:06:00,VALID,916.865,VALID,0,VALID,100,VALID,-0.0339617,VALID,19.9794,VALID,170,VALID,0.660156,
2008-07-06, 02:07:00,VALID,916.846,VALID,0,VALID,100,VALID,-0.0169808,VALID,19.9923,VALID,173,VALID,0.694404,
2008-07-06, 02:08:00,VALID,916.83,VALID,0,VALID,100,VALID,-0.0339617,VALID,19.9754,VALID,170,VALID,0.637463,
2008-07-06, 02:09:00,VALID,916.812,VALID,0,VALID,100,VALID,0,VALID,20.0021,VALID,169,VALID,0.540179,
2008-07-06, 02:10:00,VALID,916.795,VALID,0,VALID,100,VALID,-0.0169808,VALID,20.0018,VALID,166,VALID,0,
2008-07-06, 02:11:00,VALID,916.772,VALID,0,VALID,100,VALID,0,VALID,20.018,VALID,141,VALID,0,
2008-07-06, 02:12:00,VALID,916.764,VALID,0,VALID,100,VALID,0,VALID,20.0343,VALID,141,VALID,0,
2008-07-06, 02:13:00,VALID,916.744,VALID,0,VALID,100,VALID,-0.0339617,VALID,20.0245,VALID,141,VALID,0,
2008-07-06, 02:14:00,VALID,916.741,VALID,0,VALID,100,VALID,0,VALID,20.0145,VALID,141,VALID,0,
2008-07-06, 02:15:00,VALID,916.739,VALID,0,VALID,100,VALID,0.0169808,VALID,20.0081,VALID,155,VALID,0,
2008-07-06, 02:16:00,VALID,916.719,VALID,0,VALID,100,VALID,0,VALID,20.0083,VALID,168,VALID,0,
2008-07-06, 02:17:00,VALID,916.715,VALID,0,VALID,100,VALID,0,VALID,20.0046,VALID,174,VALID,0,
2008-07-06, 02:18:00,VALID,916.708,VALID,0,VALID,100,VALID,-0.0339617,VALID,20.0183,VALID,165,VALID,0,
2008-07-06, 02:19:00,VALID,916.715,VALID,0,VALID,100,VALID,0,VALID,20.0078,VALID,162,VALID,0.00109012,
2008-07-06, 02:20:00,VALID,916.723,VALID,0,VALID,100,VALID,-0.0169808,VALID,20.0058,VALID,138,VALID,0,
2008-07-06, 02:21:00,VALID,916.72,VALID,0,VALID,100,VALID,-0.0339617,VALID,20.0056,VALID,163,VALID,0,
2008-07-06, 02:22:00,VALID,916.71,VALID,0,VALID,100,VALID,0.0339617,VALID,19.9983,VALID,174,VALID,0.164844,
2008-07-06, 02:23:00,VALID,916.723,VALID,0,VALID,100,VALID,0,VALID,19.9951,VALID,170,VALID,0.00868056,
2008-07-06, 02:24:00,VALID,916.726,VALID,0,VALID,100,VALID,0,VALID,19.9983,VALID,149,VALID,0,
2008-07-06, 02:25:00,VALID,916.723,VALID,0,VALID,100,VALID,-0.0169808,VALID,20.0051,VALID,155,VALID,0,
2008-07-06, 02:26:00,VALID,916.709,VALID,0,VALID,100,VALID,0,VALID,20.0016,VALID,161,VALID,0,
2008-07-06, 02:27:00,VALID,916.699,VALID,0,VALID,100,VALID,-0.0169808,VALID,19.9948,VALID,167,VALID,0,
2008-07-06, 02:28:00,VALID,916.691,VALID,0,VALID,100,VALID,0.0169808,VALID,19.9824,VALID,165,VALID,0,
2008-07-06, 02:29:00,VALID,916.681,VALID,0.2,VALID,100,VALID,-0.0169808,VALID,19.9824,VALID,165,VALID,0,
2008-07-06, 02:30:00,VALID,916.678,VALID,0,VALID,100,VALID,-0.0169808,VALID,19.9923,VALID,166,VALID,0,
2008-07-06, 02:31:00,VALID,916.664,VALID,0,VALID,100,VALID,0,VALID,20.0018,VALID,166,VALID,0,
2008-07-06, 02:32:00,VALID,916.666,VALID,0,VALID,100,VALID,0,VALID,20.0113,VALID,166,VALID,0,
2008-07-06, 02:33:00,VALID,916.667,VALID,0,VALID,100,VALID,-0.0169808,VALID,20.0345,VALID,153,VALID,0,
2008-07-06, 02:34:00,VALID,916.644,VALID,0,VALID,100,VALID,0,VALID,20.0373,VALID,148,VALID,0,
2008-07-06, 02:35:00,VALID,916.656,VALID,0,VALID,100,VALID,0,VALID,20.0375,VALID,148,VALID,0,
2008-07-06, 02:36:00,VALID,916.654,VALID,0,VALID,100,VALID,-0.0169808,VALID,20.0305,VALID,148,VALID,0,
2008-07-06, 02:37:00,VALID,916.656,VALID,0,VALID,100,VALID,-0.0169808,VALID,20.034,VALID,148,VALID,0,
2008-07-06, 02:38:00,VALID,916.665,VALID,0,VALID,100,VALID,-0.0339617,VALID,20.0408,VALID,148,VALID,0,
2008-07-06, 02:39:00,VALID,916.663,VALID,0,VALID,100,VALID,0,VALID,20.0497,VALID,148,VALID,0,
2008-07-06, 02:40:00,VALID,916.668,VALID,0,VALID,100,VALID,0,VALID,20.0632,VALID,148,VALID,0,
2008-07-06, 02:41:00,VALID,916.657,VALID,0,VALID,100,VALID,0.0339617,VALID,20.0602,VALID,148,VALID,0,
2008-07-06, 02:42:00,VALID,916.651,VALID,0,VALID,100,VALID,-0.0169808,VALID,20.0373,VALID,148,VALID,0,
2008-07-06, 02:43:00,VALID,916.651,VALID,0,VALID,100,VALID,0.0169808,VALID,20.028,VALID,148,VALID,0,
2008-07-06, 02:44:00,VALID,916.627,VALID,0,VALID,100,VALID,-0.0169808,VALID,20.0345,VALID,148,VALID,0,
2008-07-06, 02:45:00,VALID,916.627,VALID,0,VALID,100,VALID,-0.0169808,VALID,20.0542,VALID,148,VALID,0,
2008-07-06, 02:46:00,VALID,916.611,VALID,0,VALID,100,VALID,-0.0169808,VALID,20.0772,VALID,148,VALID,0,
2008-07-06, 02:47:00,VALID,916.591,VALID,0,VALID,100,VALID,-0.0169808,VALID,20.0829,VALID,148,VALID,0,
2008-07-06, 02:48:00,VALID,916.567,VALID,0,VALID,100,VALID,0.0169808,VALID,20.0929,VALID,148,VALID,0,
2008-07-06, 02:49:00,VALID,916.547,VALID,0,VALID,100,VALID,0.0169808,VALID,20.0727,VALID,140,VALID,0,
2008-07-06, 02:50:00,VALID,916.516,VALID,0,VALID,100,VALID,0,VALID,20.0667,VALID,115,VALID,0,
2008-07-06, 02:51:00,VALID,916.498,VALID,0,VALID,100,VALID,0,VALID,20.0667,VALID,83,VALID,0,
2008-07-06, 02:52:00,VALID,916.488,VALID,0,VALID,100,VALID,0,VALID,20.0727,VALID,75,VALID,0,
2008-07-06, 02:53:00,VALID,916.492,VALID,0,VALID,100,VALID,-0.0339617,VALID,20.0667,VALID,83,VALID,0,
2008-07-06, 02:54:00,VALID,916.464,VALID,0,VALID,100,VALID,0,VALID,20.048,VALID,107,VALID,0,
2008-07-06, 02:55:00,VALID,916.443,VALID,0,VALID,100,VALID,-0.0339617,VALID,20.0283,VALID,120,VALID,0.0173399,
2008-07-06, 02:56:00,VALID,916.414,VALID,0,VALID,100,VALID,-0.0339617,VALID,20.0123,VALID,108,VALID,0,
2008-07-06, 02:57:00,VALID,916.39,VALID,0,VALID,100,VALID,-0.0339617,VALID,20.0123,VALID,100,VALID,0.25705,
2008-07-06, 02:58:00,VALID,916.36,VALID,0,VALID,100,VALID,-0.0509425,VALID,20.0221,VALID,92,VALID,0.300781,
2008-07-06, 02:59:00,VALID,916.336,VALID,0,VALID,100,VALID,-0.0849042,VALID,20.0253,VALID,80,VALID,0.883984,
2008-07-06, 03:00:00,VALID,916.308,VALID,0,VALID,100,VALID,0,VALID,20.0348,VALID,126,VALID,1.01136,
2008-07-06, 03:01:00,VALID,916.306,VALID,0,VALID,100,VALID,-0.0679233,VALID,20.0353,VALID,107,VALID,1.0865,
2008-07-06, 03:02:00,VALID,916.307,VALID,0,VALID,100,VALID,-0.0339617,VALID,20.048,VALID,124,VALID,1.22489,
2008-07-06, 03:03:00,VALID,916.301,VALID,0,VALID,100,VALID,-0.0679233,VALID,20.048,VALID,126,VALID,1.15472,
2008-07-06, 03:04:00,VALID,916.293,VALID,0,VALID,100,VALID,-0.0679233,VALID,20.0585,VALID,145,VALID,0.868056,
2008-07-06, 03:05:00,VALID,916.286,VALID,0,VALID,100,VALID,-0.0509425,VALID,20.065,VALID,130,VALID,0.15904,
2008-07-06, 03:06:00,VALID,916.288,VALID,0,VALID,100,VALID,-0.0339617,VALID,20.084,VALID,152,VALID,0.721112,
2008-07-06, 03:07:00,VALID,916.289,VALID,0,VALID,100,VALID,-0.0339617,VALID,20.0807,VALID,158,VALID,0.950174,
2008-07-06, 03:08:00,VALID,916.298,VALID,0,VALID,100,VALID,-0.0509425,VALID,20.1132,VALID,169,VALID,0.448828,
2008-07-06, 03:09:00,VALID,916.307,VALID,0,VALID,100,VALID,-0.0169808,VALID,20.1421,VALID,191,VALID,0.988009,
2008-07-06, 03:10:00,VALID,916.293,VALID,0,VALID,100,VALID,-0.0169808,VALID,20.1646,VALID,152,VALID,0.769531,
2008-07-06, 03:11:00,VALID,916.309,VALID,0,VALID,100,VALID,0,VALID,20.1908,VALID,151,VALID,0.334201,
2008-07-06, 03:12:00,VALID,916.29,VALID,0,VALID,100,VALID,-0.0169808,VALID,20.2103,VALID,160,VALID,0.430069,
2008-07-06, 03:13:00,VALID,916.286,VALID,0,VALID,100,VALID,-0.0339617,VALID,20.2133,VALID,152,VALID,0.87936,
2008-07-06, 03:14:00,VALID,916.257,VALID,0,VALID,100,VALID,-0.0339617,VALID,20.2362,VALID,179,VALID,0.68064,
2008-07-06, 03:15:00,VALID,916.256,VALID,0,VALID,100,VALID,-0.0169808,VALID,20.2268,VALID,184,VALID,0.72745,
2008-07-06, 03:16:00,VALID,916.262,VALID,0,VALID,99.9878,VALID,0,VALID,20.2327,VALID,154,VALID,1.25981,
2008-07-06, 03:17:00,VALID,916.279,VALID,0,VALID,99.8782,VALID,0,VALID,20.2652,VALID,131,VALID,0.881098,
2008-07-06, 03:18:00,VALID,916.288,VALID,0,VALID,99.7078,VALID,-0.0169808,VALID,20.2849,VALID,121,VALID,0.635975,
2008-07-06, 03:19:00,VALID,916.297,VALID,0,VALID,99.6633,VALID,-0.0339617,VALID,20.2976,VALID,94,VALID,0.0915179,
2008-07-06, 03:20:00,VALID,916.311,VALID,0,VALID,99.6531,VALID,-0.0169808,VALID,20.3041,VALID,108,VALID,0.0242187,
2008-07-06, 03:21:00,VALID,916.304,VALID,0,VALID,99.5997,VALID,-0.0169808,VALID,20.2874,VALID,164,VALID,1.01616,
2008-07-06, 03:22:00,VALID,916.295,VALID,0,VALID,99.6506,VALID,0,VALID,20.2914,VALID,148,VALID,0.00260417,
2008-07-06, 03:23:00,VALID,916.295,VALID,0,VALID,99.6264,VALID,0,VALID,20.2817,VALID,155,VALID,0,
2008-07-06, 03:24:00,VALID,916.291,VALID,0,VALID,99.6595,VALID,0,VALID,20.2652,VALID,171,VALID,0,
2008-07-06, 03:25:00,VALID,916.281,VALID,0,VALID,99.7243,VALID,-0.0169808,VALID,20.2687,VALID,173,VALID,0,
2008-07-06, 03:26:00,VALID,916.291,VALID,0,VALID,99.779,VALID,-0.0509425,VALID,20.2719,VALID,173,VALID,0,
2008-07-06, 03:27:00,VALID,916.255,VALID,0,VALID,99.8121,VALID,-0.0509425,VALID,20.2595,VALID,219,VALID,0,
2008-07-06, 03:28:00,VALID,916.262,VALID,0,VALID,99.8922,VALID,-0.0339617,VALID,20.2522,VALID,237,VALID,0,
2008-07-06, 03:29:00,VALID,916.252,VALID,0,VALID,99.9814,VALID,0.0169808,VALID,20.2495,VALID,237,VALID,0,
2008-07-06, 03:30:00,VALID,916.254,VALID,0,VALID,100,VALID,-0.0339617,VALID,20.246,VALID,237,VALID,0,
2008-07-06, 03:31:00,VALID,916.25,VALID,0,VALID,100,VALID,-0.0679233,VALID,20.243,VALID,237,VALID,0,
2008-07-06, 03:32:00,VALID,916.245,VALID,0,VALID,100,VALID,0,VALID,20.246,VALID,237,VALID,0,
2008-07-06, 03:33:00,VALID,916.236,VALID,0,VALID,100,VALID,0,VALID,20.2422,VALID,37,VALID,0.412246,
2008-07-06, 03:34:00,VALID,916.226,VALID,0,VALID,100,VALID,-0.0169808,VALID,20.213,VALID,45,VALID,0.0301847,
2008-07-06, 03:35:00,VALID,916.197,VALID,0,VALID,100,VALID,0,VALID,20.197,VALID,95,VALID,0.420387,
2008-07-06, 03:36:00,VALID,916.173,VALID,0,VALID,100,VALID,0,VALID,20.1773,VALID,102,VALID,0.194568,
2008-07-06, 03:37:00,VALID,916.164,VALID,0,VALID,99.9664,VALID,-0.0169808,VALID,20.1968,VALID,126,VALID,0.56064,
2008-07-06, 03:38:00,VALID,916.158,VALID,0,VALID,99.7472,VALID,-0.0339617,VALID,20.233,VALID,166,VALID,1.26381,
2008-07-06, 03:39:00,VALID,916.167,VALID,0,VALID,99.2258,VALID,-0.0339617,VALID,20.2617,VALID,159,VALID,1.59811,
2008-07-06, 03:40:00,VALID,916.167,VALID,0,VALID,98.8189,VALID,0,VALID,20.3466,VALID,168,VALID,1.3441,
2008-07-06, 03:41:00,VALID,916.191,VALID,0,VALID,98.482,VALID,-0.0169808,VALID,20.415,VALID,161,VALID,0.885603,
2008-07-06, 03:42:00,VALID,916.185,VALID,0,VALID,98.2086,VALID,-0.0509425,VALID,20.4567,VALID,183,VALID,1.12234,
2008-07-06, 03:43:00,VALID,916.185,VALID,0,VALID,97.9949,VALID,-0.0509425,VALID,20.4761,VALID,190,VALID,1.13932,
2008-07-06, 03:44:00,VALID,916.211,VALID,0,VALID,97.7432,VALID,-0.0509425,VALID,20.4891,VALID,165,VALID,1.64611,
2008-07-06, 03:45:00,VALID,916.213,VALID,0,VALID,97.6058,VALID,-0.0679233,VALID,20.5089,VALID,166,VALID,0.915104,
2008-07-06, 03:46:00,VALID,916.203,VALID,0,VALID,97.6084,VALID,-0.0679233,VALID,20.5251,VALID,174,VALID,0.717361,
2008-07-06, 03:47:00,VALID,916.179,VALID,0,VALID,97.5728,VALID,-0.0509425,VALID,20.5346,VALID,180,VALID,0.659624,